sat.trackr.live / text

‹ back to catalog

STARLINK-32296

NORAD 61524 · 2024-183R

PAYLOAD ACTIVE UNKNOWN

§ Identity

Operator
Country
US
Launch date
2024-10-15
Launch site
AFETR
Launch vehicle
Mass (kg)
RCS (m²)

Purposes: comms

External: N2YO · Heavens-Above · Gunter

§ Orbital elements

Epoch: 2026-09-20T16:00:01.998720Z

Period
94.01 min
Inclination
53.1583°
Eccentricity
0.0001095
Mean motion
15.31693586 rev/d
Perigee alt
470.0 km
Apogee alt
471.5 km
Semi-major
6,848.9 km
B*
7.8135e-4
RAAN
315.0414°
Arg perigee
77.7894°
Mean anomaly
114.5765°
Rev number
568

§ Raw data

STARLINK-322961 61524U 24183R   26263.66668980  .00023954  00000+0  78135-3 0  99932 61524  53.1583 315.0414 0001095  77.7894 114.5765 15.31693586  5685

JSON: /api/v1/satellites/61524 · /tle

For live sub-satellite position, see the globe view (requires WebGL).

§ Visibility from observer

Set your observer location to see the next 7 days of passes ≥ 10°. The values pass through the URL so the page stays shareable.

No JS? Fill the form by hand. The geolocation button needs JavaScript.